Location: Asheville, NC
(35.6000°N, 82.5500°W)
Time: 21:03:48
(UTC-05:00)

FO-29 - Pass Details

Date: 12 January 2018
Orbit: 800 x 1322 km, 98.5° (Epoch: 20 January)

Event Time Altitude Azimuth Distance (km) Brightness Sun altitude
Rises 07:05:54 0° 141° (SE) 4,229 14.0 -7.1°
Reaches altitude 10° 07:08:53 10° 134° (SE) 3,214 13.5 -6.6°
Maximum altitude 07:15:31 38° 70° (ENE) 1,717 11.3 -5.3°
Drops below altitude 10° 07:21:34 10° 5° (N) 2,918 11.8 -4.2°
Sets 07:24:08 0° 358° (N) 3,801 12.3 -3.7°
